Visibility
15.0 15.0 15.0 15.0 15.0 15.0 15.0 15.0 15.0 15.0 15.0 15.0 15.0 15.0 15.0 15.0 15.0 15.0 15.0 15.0 15.0 15.0 15.0 15.0 15.0 15.0 15.0 15.0 15.0 15.0 15.0 15.0 15.0
15.0 15.0 15.0 15.0 15.0 15.0 13.2 15.0 15.0 15.0 15.0 15.0 15.0 15.0 15.0 15.0 15.0 15.0 15.0 15.0 15.0 15.0 15.0 15.0 15.0 15.0 15.0 15.0 15.0 15.0 15.0 15.0 15.0
15.0 15.0 15.0 15.0 15.0 15.0 15.0 15.0 15.0 15.0 15.0 15.0 15.0 15.0 15.0 15.0 15.0 15.0 15.0 15.0 15.0 15.0 15.0 15.0 15.0 15.0 15.0 15.0 15.0 15.0 15.0 15.0 15.0
15.0 15.0 11.2 15.0 15.0 15.0 15.0 15.0 15.0 15.0 15.0 15.0 15.0 15.0 15.0 15.0 15.0 15.0 15.0 15.0 15.0 15.0 15.0 15.0 15.0 15.0 15.0 15.0 15.0 15.0 15.0 15.0 15.0
15.0 15.0 15.0 15.0 15.0 15.0 15.0 15.0 15.0 3.8 2.7 15.0 15.0 15.0 15.0 15.0 15.0 15.0 15.0 15.0 15.0 15.0 15.0 15.0 15.0 15.0 15.0 15.0 15.0 15.0 15.0 15.0 15.0
15.0 15.0 15.0 15.0 15.0 15.0 15.0 15.0 15.0 15.0 15.0 15.0 15.0 15.0 15.0 15.0 15.0 15.0 15.0 15.0 15.0 15.0 15.0 15.0 15.0 15.0 15.0 15.0 15.0 15.0 15.0 15.0 15.0
8.9 15.0 15.0 15.0 15.0 15.0 15.0 15.0 15.0 15.0 15.0 15.0 13.9 15.0 15.0 15.0 15.0 15.0 15.0 15.0 15.0 15.0 15.0 15.0 15.0 15.0 15.0 15.0 15.0 15.0 15.0 15.0 15.0
15.0 15.0 15.0 15.0 15.0 15.0 15.0 15.0 15.0 15.0 15.0 15.0 15.0 6.6 15.0 15.0 15.0 15.0 15.0 15.0 15.0 15.0 15.0 15.0 15.0 15.0 15.0 15.0 15.0 15.0 15.0 15.0 15.0
15.0 15.0 15.0 15.0 15.0 15.0 15.0 15.0 15.0 15.0 15.0 15.0 15.0 15.0 9.8 15.0 15.0 15.0 15.0 15.0 15.0 15.0 15.0 15.0 15.0 15.0 15.0 15.0 15.0 15.0 15.0 15.0 15.0
15.0 15.0 15.0 15.0 15.0 15.0 15.0 7.2 5.3 12.5 15.0 15.0 15.0 15.0 15.0 15.0 15.0 15.0 15.0 15.0 15.0 15.0 15.0 15.0 15.0 15.0 15.0 15.0 15.0 15.0 15.0 15.0 15.0
15.0 15.0 15.0 15.0 15.0 13.4 13.7 15.0 11.0 9.8 4.9 9.8 15.0 15.0 15.0 15.0 15.0 15.0 15.0 15.0 15.0 15.0 15.0 10.1 15.0 15.0 15.0 15.0 15.0 15.0 15.0 15.0 15.0
15.0 15.0 15.0 15.0 15.0 15.0 7.3 1.3 4.9 2.4 8.9 7.6 6.0 9.6 15.0 15.0 3.8 10.4 7.6 15.0 15.0 15.0 15.0 15.0 11.2 15.0 15.0 15.0 15.0 15.0 15.0 15.0 15.0
15.0 15.0 15.0 15.0 15.0 15.0 15.0 13.4 7.8 8.9 8.2 9.0 6.7 4.3 4.8 13.3 10.8 4.9 4.9 15.0 15.0 15.0 15.0 7.1 14.0 9.8 15.0 15.0 15.0 15.0 15.0 15.0 15.0
15.0 15.0 15.0 15.0 15.0 15.0 15.0 14.6 15.0 8.6 6.5 6.7 4.6 15.0 11.8 5.2 4.9 5.6 7.2 12.4 11.7 15.0 15.0 14.6 11.2 15.0 14.7 14.3 9.4 13.9 15.0 15.0 15.0
15.0 15.0 15.0 15.0 15.0 15.0 15.0 15.0 6.5 11.7 7.3 5.0 3.3 15.0 15.0 7.1 9.7 14.2 6.0 15.0 11.9 3.1 6.0 6.6 14.1 14.9 15.0 10.0 5.3 12.5 8.3 8.2 15.0
15.0 15.0 15.0 15.0 15.0 15.0 15.0 15.0 15.0 15.0 0.8 5.4 13.0 0.3 15.0 0.4 15.0 12.3 15.0 15.0 15.0 4.8 4.2 3.4 6.0 12.8 6.6 13.8 15.0 12.1 15.0 15.0 5.6
15.0 15.0 15.0 15.0 15.0 15.0 15.0 15.0 8.8 2.8 2.7 4.8 5.3 11.7 15.0 11.1 13.1 15.0 15.0 15.0 15.0 13.5 6.5 4.4 4.9 4.7 14.2 15.0 15.0 6.2 15.0 11.1 12.4
15.0 15.0 15.0 15.0 9.4 15.0 15.0 15.0 13.9 6.2 14.0 6.1 5.4 1.7 11.0 15.0 15.0 15.0 15.0 15.0 15.0 15.0 15.0 13.3 6.2 4.3 4.8 5.1 13.5 15.0 15.0 9.2 12.7
15.0 15.0 15.0 15.0 15.0 13.9 11.5 15.0 15.0 9.4 9.4 3.2 5.5 3.4 15.0 15.0 15.0 15.0 15.0 15.0 15.0 15.0 15.0 14.8 5.9 13.9 10.5 13.2 8.7 13.3 7.4 14.0 15.0
15.0 15.0 13.9 11.9 14.5 14.9 15.0 15.0 15.0 15.0 12.2 8.5 0.7 0.7 14.0 3.4 14.4 14.6 15.0 15.0 15.0 15.0 8.7 8.4 8.0 15.0 10.5 10.1 15.0 15.0 15.0 13.9 15.0